x

Yucatan Basin - 120 Nm Ese Of Cozumel, Mx (42056) Wave Buoy

9:50 - Fri 29th Apr 2016 All times are CDT. -5 hours from GMT.

  • Sig Wave height 3.6ft
  • Swell Direction
  • Peak Period 5s
  • Average Period 4s
  • Wind
    18mph, 22mph gusts
  • Sea Temp 82°f
  • Luft Temp 82°f
  • Sea Pressure 1012.4mb
  •  Yucatan Basin - 120 Nm Ese Of Cozumel, Mx
  •  Yucatan Basin - 120 Nm Ese Of Cozumel, Mx

More Historic Weather Station data

Upgrade to MSW Pro to gain access to the past 30 days of data for over 8000 Wavebouys and Weather Stations around the globe.

Join Pro

Comparision Forecast

View Surf forecast
   
Fr 04/29 9:50 3.5ft 5s 4s 18 22 mph 1012.4mb 82f 82f
8:50 3.5ft 5s 4s 16 20 mph 1012.2mb 82f 82f
7:50 3.5ft 5s 4s 18 20 mph 1011.7mb 82f 82f
6:50 3.5ft 5s 5s 16 18 mph 1011.7mb 82f 81f
5:50 3.5ft 5s 4s 16 18 mph 1011mb 82f 81f
4:50 3.5ft 5s 4s 16 18 mph 1010.6mb 82f 81f
3:50 3.5ft 5s 4s 16 18 mph 1010.4mb 82f 81f
2:50 3.5ft 5s 4s 16 18 mph 1010.8mb 82f 81f
1:50 3.5ft 5s 4s 18 20 mph 1011.1mb 82f 81f
12:50 3.5ft 5s 4s 18 20 mph 1011.7mb 82f 81f
Do 04/28 11:50 3.5ft 5s 4s 18 20 mph 1012.4mb 82f 82f
7:50 4.5ft 5s 5s 18 20 mph 1011.3mb 82f 82f
6:50 4ft 6s 4s 18 20 mph 1010.9mb 82f 82f
5:50 4ft 5s 4s 18 20 mph 1010.6mb 82f 82f
4:50 3.5ft 5s 4s 18 20 mph 1010.2mb 82f 82f
3:50 3.5ft 5s 4s 18 20 mph 1010.4mb 82f 82f
2:50 3.5ft 5s 4s 18 22 mph 1010.7mb 82f 82f
1:50 3.5ft 6s 4s 16 20 mph 1011.4mb 82f 82f
12:50 3.5ft 5s 4s 16 18 mph 1012mb 82f 82f
11:50 3.5ft 5s 4s 16 20 mph 1012.4mb 82f 82f
10:50 3ft 5s 4s 16 20 mph 1012.6mb 82f 82f
9:50 3.5ft 5s 4s 13 18 mph 1012.6mb 82f 82f
8:50 3.5ft 6s 4s 16 20 mph 1012.2mb 82f 82f
7:50 3.5ft 6s 5s 16 18 mph 1011.8mb 82f 82f
6:50 3.5ft 5s 4s 16 18 mph 1011.4mb 82f 81f
5:50 3.5ft 5s 5s 16 18 mph 1010.4mb 82f 81f
4:50 3.5ft 6s 5s 16 18 mph 1009.7mb 82f 81f
3:50 3.5ft 6s 5s 16 18 mph 1009.4mb 82f 81f
2:50 3.5ft 5s 5s 16 18 mph 1009.4mb 82f 81f
1:50 3.5ft 5s 5s 13 18 mph 1010mb 82f 81f
12:50 3.5ft 5s 5s 13 16 mph 1010.6mb 82f 81f
Mi 04/27 11:50 3.5ft 6s 5s 13 16 mph 1011mb 82f 82f
10:50 3.5ft 6s 5s 13 16 mph 1010.8mb 82f 82f
9:50 4ft 5s 5s 16 18 mph 1010.2mb 82f 82f
8:50 3.5ft 5s 4s 18 20 mph 1009.5mb 82f 82f
7:50 4ft 6s 4s 18 20 mph 1008.8mb 82f 82f
6:50 3.5ft 5s 5s 18 20 mph 1008.2mb 82f 82f
5:50 4ft 5s 5s 18 22 mph 1007.2mb 82f 82f
4:50 3.5ft 6s 4s 18 20 mph 1007.7mb 82f 82f
3:50 4ft 6s 5s 16 18 mph 1008.4mb 82f 82f
2:50 4ft 6s 5s 16 18 mph 1009.1mb 82f 82f
1:50 3.5ft 6s 5s 16 20 mph 1009.6mb 82f 82f
12:50 3.5ft 5s 5s 13 18 mph 1010.1mb 82f 83f
11:50 4ft 6s 5s 16 18 mph 1010.3mb 82f 82f
10:50 4ft 6s 5s 18 20 mph 1010.4mb 82f 82f
9:50 3.5ft 6s 5s 16 18 mph 1010.1mb 82f 82f
8:50 3.5ft 7s 5s 16 18 mph 1009.9mb 82f 82f
7:50 4ft 6s 5s 16 18 mph 1009.6mb 82f 82f
6:50 4.5ft 7s 5s 16 18 mph 1009.2mb 82f 81f
5:50 4.5ft 6s 5s 13 18 mph 1008.7mb 82f 81f
4:50 4.5ft 6s 5s 16 18 mph 1008.2mb 82f 81f
3:50 4.5ft 6s 5s 18 22 mph 1007.8mb 82f 81f
2:50 4.5ft 6s 5s 18 22 mph 1008.1mb 82f 81f
1:50 4ft 6s 4s 18 22 mph 1009.2mb 82f 81f
12:50 3.5ft 5s 4s 18 22 mph 1009.6mb 82f 81f
Di 04/26 11:50 3.5ft 5s 4s 18 20 mph 1010.2mb 82f 81f
10:50 3ft 6s 4s 16 20 mph 1010.7mb 82f 82f
9:50 2.5ft 4s 4s 16 18 mph 1010mb 82f 82f
8:50 3ft 6s 4s 16 18 mph 1009.6mb 82f 82f
7:50 2.5ft 6s 4s 13 16 mph 1009.2mb 82f 82f
6:50 2.5ft 6s 4s 13 18 mph 1008.7mb 82f 82f
5:50 2.5ft 6s 4s 13 16 mph 1008.7mb 82f 82f
4:50 2.5ft 6s 4s 13 16 mph 1009.1mb 82f 82f
3:50 2.5ft 6s 4s 11 13 mph 1009.3mb 82f 82f
2:50 3ft 6s 4s 11 13 mph 1009.8mb 82f 82f
1:50 2.5ft 6s 4s 13 16 mph 1010mb 82f 81f
12:50 2.5ft 6s 4s 13
mph
1010.8mb 82f 82f
11:50 2.5ft 6s 4s 11 16 mph 1011.3mb 82f 81f
10:50 2.5ft 6s 5s 13 16 mph 1011.4mb 82f 81f
9:50 3ft 6s 5s 11 13 mph 1011.5mb 82f 81f
8:50 3ft 6s 5s 11 13 mph 1011.1mb 82f 81f
7:50 3ft 6s 5s 11 13 mph 1010.7mb 82f 81f
6:50 3ft 5s 4s 11 13 mph 1010.1mb 82f 81f
5:50 3ft 5s 4s 13 16 mph 1009.6mb 82f 80f
4:50 2.5ft 5s 4s 13
mph
1009.3mb 82f 80f
3:50 2.5ft 5s 4s 11
mph
1009.5mb 82f 81f
2:50 2.5ft 5s 4s 11 13 mph 1010.1mb 82f 81f
1:50 2.5ft 4s 4s 11 13 mph 1010.6mb 82f 81f
12:50 2.5ft 4s 4s 13 16 mph 1010.9mb 82f 81f
Mo 04/25 11:50 2.5ft 8s 4s 16 20 mph 1011.2mb 82f 81f
10:50 2ft 8s 4s 11
mph
1011.7mb 82f 81f
9:50 2ft 8s 4s 11
mph
1011.5mb 82f 81f
8:50 2ft 8s 4s 9 11 mph 1011.4mb 82f 81f
7:50 2.5ft 8s 4s 11 13 mph 1011.1mb 82f 81f
6:50 2.5ft 8s 4s 9 11 mph 1011.2mb 82f 81f
5:50 2.5ft 8s 4s 11 13 mph 1010.8mb 82f 81f
4:50 2.5ft 6s 4s 11 13 mph 1010.4mb 82f 81f